Pompano Beach, FL

1:19 PM EDT on April 22, 2018 (GMT -0400)
Pompano Beach

Weather History for KPMP - August, 2013

Change the Weather History Date:

Sunday, August 11, 2013

  Actual Average Record
Temperature  
Mean Temperature 86 °F -  
Max Temperature 89 °F 91 °F 99 °F (1987)
Min Temperature 82 °F 73 °F 65 °F (1984)
Cooling Degree Days 20    
Growing Degree Days 36 (Base 50)    
Moisture  
Dew Point 75 °F    
Average Humidity 72    
Maximum Humidity 79    
Minimum Humidity 63    
Precipitation  
Precipitation 0.00 in - - ()
Sea Level Pressure  
Sea Level Pressure 30.12 in    
Wind  
Wind Speed 11 mph (East)    
Max Wind Speed 15 mph    
Max Gust Speed -    
Visibility 10 miles    
Events      
Averages and records for this station are not official NWS values.
T = Trace of Precipitation, MM = Missing Value Source: NWS Daily Summary

Daily Weather History Graph

Daily Weather History Graph

Search for Another Location

Airport or City:

Astronomy

Aug. 11, 2013 Rise Set
Actual Time 6:51 AM EDT 7:59 PM EDT
Civil Twilight 6:26 AM EDT 8:24 PM EDT
Nautical Twilight 5:57 AM EDT 8:52 PM EDT
Astronomical Twilight 5:28 AM EDT 9:22 PM EDT
Moon 11:03 AM EDT (8/11) 10:50 PM EDT (8/11)
Length of Visible Light 13h 57m
Length of Day
13h 08m
Waxing Crescent, 22% of the Moon is Illuminated
Aug 11
Waxing Crescent
Aug 14
First Quarter
Aug 20
Full
Aug 28
Last Quarter
Sep 5
New

Hourly Weather History & Observations

Time (EDT) Temp. Heat Index Dew Point Humidity Pressure Visibility Wind Dir Wind Speed Gust Speed Precip Events Conditions
12:53 AM 82.9 °F 90.2 °F 75.0 °F 77% 30.12 in 10.0 mi ESE 11.5 mph - N/A   Clear
1:53 AM 82.9 °F 90.2 °F 75.0 °F 77% 30.12 in 10.0 mi ESE 10.4 mph - N/A   Partly Cloudy
2:53 AM 82.9 °F 90.2 °F 75.0 °F 77% 30.11 in 10.0 mi East 10.4 mph - N/A   Partly Cloudy
3:53 AM 82.9 °F 89.4 °F 73.9 °F 74% 30.10 in 10.0 mi ESE 11.5 mph - N/A   Clear
4:53 AM 82.9 °F 90.2 °F 75.0 °F 77% 30.10 in 10.0 mi East 10.4 mph - N/A   Partly Cloudy
5:53 AM 82.9 °F 89.4 °F 73.9 °F 74% 30.11 in 10.0 mi East 9.2 mph - N/A   Scattered Clouds
6:53 AM 82.0 °F 88.6 °F 75.0 °F 79% 30.12 in 10.0 mi East 9.2 mph - N/A   Scattered Clouds
7:53 AM 84.0 °F 91.9 °F 75.0 °F 74% 30.13 in 10.0 mi East 9.2 mph - N/A   Scattered Clouds
8:53 AM 84.9 °F 93.3 °F 75.0 °F 72% 30.14 in 10.0 mi East 11.5 mph - N/A   Scattered Clouds
9:53 AM 86.0 °F 95.1 °F 75.0 °F 70% 30.15 in 10.0 mi East 15.0 mph - N/A   Scattered Clouds
10:53 AM 87.1 °F 96.3 °F 75.0 °F 67% 30.15 in 10.0 mi East 12.7 mph - N/A   Scattered Clouds
11:53 AM 88.0 °F 97.5 °F 75.0 °F 65% 30.15 in 10.0 mi ESE 12.7 mph - N/A   Scattered Clouds
12:53 PM 89.1 °F 99.1 °F 75.0 °F 63% 30.14 in 10.0 mi ESE 11.5 mph - N/A   Scattered Clouds
1:53 PM 89.1 °F 99.1 °F 75.0 °F 63% 30.14 in 10.0 mi East 12.7 mph - N/A   Mostly Cloudy
2:53 PM 89.1 °F 100.2 °F 75.9 °F 65% 30.12 in 10.0 mi ESE 11.5 mph - N/A   Clear
3:53 PM 88.0 °F 97.5 °F 75.0 °F 65% 30.11 in 10.0 mi ESE 13.8 mph - N/A   Partly Cloudy
4:53 PM 88.0 °F 97.5 °F 75.0 °F 65% 30.09 in 10.0 mi East 10.4 mph - N/A   Clear
5:53 PM 86.0 °F 95.1 °F 75.0 °F 70% 30.09 in 10.0 mi East 11.5 mph - N/A   Scattered Clouds
6:53 PM 84.9 °F 93.3 °F 75.0 °F 72% 30.08 in 10.0 mi East 10.4 mph - N/A   Partly Cloudy
7:53 PM 84.0 °F 91.9 °F 75.0 °F 74% 30.08 in 10.0 mi ENE 9.2 mph - N/A   Partly Cloudy
8:53 PM 84.0 °F 91.9 °F 75.0 °F 74% 30.09 in 10.0 mi East 8.1 mph - N/A   Scattered Clouds
9:14 PM 84.2 °F 92.3 °F 75.2 °F 74% 30.10 in 10.0 mi East 10.4 mph - N/A   Mostly Cloudy
9:21 PM 84.2 °F 92.3 °F 75.2 °F 74% 30.10 in 10.0 mi East 9.2 mph - N/A   Mostly Cloudy
9:53 PM 84.0 °F 91.9 °F 75.0 °F 74% 30.11 in 10.0 mi East 6.9 mph - N/A   Partly Cloudy
10:53 PM 84.0 °F 91.2 °F 73.9 °F 72% 30.12 in 10.0 mi East 8.1 mph - N/A   Mostly Cloudy
11:53 PM 82.9 °F 89.4 °F 73.9 °F 74% 30.12 in 10.0 mi ENE 3.5 mph - N/A   Scattered Clouds